THOR ABLESTAR DEB, 753

Orbit data source: Space-Track

THOR ABLESTAR DEB, 753 is space debris in LEO originally from a launch on Thu, 05 Dec 1963 UTC launched from the Air Force Western Test Range (AFWTR). Debris objects in space refer to the collection of defunct objects orbiting the Earth. Examples of debris include non-operational satellites, rocket bodies, and fragments generated from explosions, collisions, or faulty payload assembly.

Loading next visibility...
Identifier
753, 1963-049F
Orbit
LEO
Country
Flag of USUS
Related business
Manufacturer
Unknown
Mission
Spacecraft
Bus & Motor
Unknown
Mass
Unknown
Launch date (UTC)
1963-12-05 (63 years ago)
Launch vehicle
Unknown
Launch site
Air Force Western Test Range (AFWTR)
Object type
Payload
Rocket body
Debris
Shape & HBR
Unknown shape, 0.1 m
Radar Cross Section
Medium (>0.1 m² and <1 m²)

Expand to show TLE details & history
Last TLE update: 17 hours ago

TLE from 17 hours ago
0 THOR ABLESTAR DEB
1 00753U 63049F   26175.20677443  .00000267  00000-0  37324-3 0  9998
2 00753  89.9179  72.6754 0026331 177.6181 299.9641 13.54939216 81504
Epoch: 2026-06-24T04:57Z
TLE epoch observation values (Epoch: 2026-06-24T04:57:45.310Z)
Latitude
62.76576°
Longitude
-94.28939°
Altitude
1,055.268 km
Speed
7.335 km/s
True Right ascension
16h 50m 04s
True Declination
62° 37' 52"
Sunlit
Object was in daylight at epoch
Visualization orbit readout
Latitude
Unknown
Longitude
Unknown
Altitude
Unknown
Speed
Unknown
Apparent Right ascension
Unknown
Apparent Declination
Unknown
Sunlit
N/A
Visualization observer readout
Local Sidereal Time
08:49:48
Azimuth
Unknown
Elevation
Unknown
Doppler factor
Unknown
Orbital elements
Apogee altitude
1,070.746 km
Perigee altitude
1,031.622 km
Semi-major axis
7,429.321 km
Eccentricity
0.00263
Inclination
89.9179°
RAAN
72.6754°
Arg. of periapsis
177.6181°
True anomaly
299.70227°
Mean anomaly
299.9641°
Eccentric anomaly
299.83323°
Mean motion
3.38937 °/min
Orbital period
106.21 mins
BSTAR
0.00037324
Loading maneuver chart data...
Computing Atmospheric mass density...
Loading historical data...
Loading historical data...
Loading historical data...
Loading historical data...
Loading historical data...
Loading historical data...
Loading historical data...

Documentation

Showing up to 5 results
|